Weather History for KRXE - August, 2014

Change the Weather History Date:

Wednesday, August 13, 2014

  Actual Average Record
Temperature  
Mean Temperature 69 °F 68 °F  
Max Temperature 80 °F 85 °F 96 °F (2003)
Min Temperature 57 °F 50 °F 42 °F (2006)
Degree Days  
Heating Degree Days 0 1  
Month to date heating degree days 1 6  
Since 1 June heating degree days 164 208  
Since 1 July heating degree days 9 36  
Cooling Degree Days 4 3  
Month to date cooling degree days 41 51  
Year to date cooling degree days 207 165  
Since 1 June cooling degree days 207 161  
Growing Degree Days 20 (Base 50)    
Moisture  
Dew Point 55 °F    
Average Humidity 65    
Maximum Humidity 93    
Minimum Humidity 36    
Precipitation  
Precipitation 0.06 in 0.03 in 0.24 in (2010)
Month to date precipitation 1.25 0.34  
Year to date precipitation 8.34 8.30  
Sea Level Pressure  
Sea Level Pressure 30.01 in    
Wind  
Wind Speed 6 mph (SE)    
Max Wind Speed 18 mph    
Max Gust Speed 25 mph    
Visibility 10 miles    
Events Rain , Thunderstorm    
T = Trace of Precipitation, MM = Missing Value Source: NWS Daily Summary

Daily Weather History Graph

Daily Weather History Graph

Search for Another Location

Airport or City:

Trip Planner

Search our weather history database for the weather conditions in past years. The results will help you decide how hot, cold, wet, or windy it might be!

Date:

Astronomy

Aug. 13, 2014 Rise Set
Actual Time 6:29 AM MDT 8:34 PM MDT
Civil Twilight 5:57 AM MDT 9:05 PM MDT
Nautical Twilight 5:19 AM MDT 9:43 PM MDT
Astronomical Twilight 4:36 AM MDT 10:26 PM MDT
Moon 10:11 PM MDT (8/13) 10:10 AM MDT (8/13)
Length of Visible Light 15h 07m
Length of Day
14h 04m
Waning Gibbous, 87% of the Moon is Illuminated
Aug 13
Waning Gibbous
Aug 17
Last Quarter
Aug 25
New
Sep 2
First Quarter
Sep 8
Full

Hourly Weather History & Observations

Time (MDT) Temp. Dew Point Humidity Pressure Visibility Wind Dir Wind Speed Gust Speed Precip Events Conditions
12:53 AM 64.0 °F 55.9 °F 75% 30.06 in 10.0 mi Calm Calm - N/A   Scattered Clouds
1:53 AM 62.1 °F 57.9 °F 86% 30.07 in 10.0 mi ENE 6.9 mph - N/A   Mostly Cloudy
2:53 AM 61.0 °F 57.0 °F 87% 30.06 in 10.0 mi NE 6.9 mph - N/A   Partly Cloudy
3:53 AM 60.1 °F 57.0 °F 90% 30.04 in 10.0 mi ENE 5.8 mph - N/A   Clear
4:53 AM 59.0 °F 55.9 °F 90% 30.03 in 10.0 mi ENE 4.6 mph - N/A   Clear
9:53 AM 66.9 °F 57.0 °F 70% 30.04 in 10.0 mi Variable 4.6 mph - N/A   Clear
10:53 AM 71.1 °F 55.9 °F 59% 30.05 in 10.0 mi North 4.6 mph - N/A   Clear
11:53 AM 75.0 °F 55.0 °F 50% 30.02 in 10.0 mi Variable 3.5 mph - N/A   Clear
12:53 PM 75.9 °F 53.1 °F 45% 30.01 in 10.0 mi West 8.1 mph - N/A   Mostly Cloudy
2:53 PM 72.0 °F 53.1 °F 51% 30.01 in 10.0 mi SE 10.4 mph 19.6 mph N/A   Mostly Cloudy
3:53 PM 77.0 °F 52.0 °F 42% 29.97 in 10.0 mi SE 10.4 mph 16.1 mph N/A   Clear
4:53 PM 80.1 °F 51.1 °F 36% 29.94 in 10.0 mi South 9.2 mph - N/A   Clear
5:53 PM 78.1 °F 51.1 °F 39% 29.94 in 10.0 mi South 6.9 mph - N/A   Clear
6:53 PM 73.9 °F 55.0 °F 52% 29.94 in 10.0 mi South 10.4 mph - N/A   Overcast
7:53 PM 66.0 °F 57.0 °F 73% 29.95 in 9.0 mi SSE 5.8 mph - 0.05 in Rain Light Rain
8:53 PM 64.9 °F 55.9 °F 73% 29.96 in 10.0 mi SSW 12.7 mph - 0.00 in Rain Light Rain
10:12 PM 63.0 °F 57.0 °F 81% 30.13 in 10.0 mi West 9.2 mph - 0.00 in Rain , Thunderstorm Light Rain
10:53 PM 63.0 °F 57.9 °F 84% 30.02 in 10.0 mi SW 3.5 mph - 0.00 in   Mostly Cloudy
11:53 PM 62.1 °F 57.0 °F 84% 29.99 in 10.0 mi NE 4.6 mph - N/A   Partly Cloudy